Location: Mahannah Oil Field
(37.4664°N, 96.6003°W)
Time: 10:30:12
(UTC+00:00)

deb Explorer IX - Pass Details

Date: 28 January 2021
Orbit: 538 x 1101 km, 38.8° (Epoch: 07 March)

Event Time Altitude Azimuth Distance (km) Brightness Sun altitude
Rises 01:26:46 0° 277° (W) 3,705 ? -20.2°
Reaches altitude 10° 01:29:36 10° 278° (W) 2,678 ? -20.7°
Maximum altitude 01:36:01 82° 7° (N) 859 ? -22.0°
Enters shadow 01:37:35 50° 87° (E) 1,034 ? -22.3°
